Regional Weather Roundup
Issued by NWS

Home | Current Version | Previous Version | Graphics & Text | Print | Product List | Glossary On
Versions: 1 2 3 4 5 6 7 8 9 10 11 12 13 14 15 16 17 18 19 20 21 22 23 24 25 26 27
000
ASUS45 KBOI 191410
RWRID

IDAHO REGIONAL WEATHER ROUNDUP
NATIONAL WEATHER SERVICE BOISE ID
800 AM MDT THU APR 19 2018

NOTE: "FAIR" INDICATES FEW OR NO CLOUDS BELOW 12000 FEET
WITH NO SIGNIFICANT WEATHER AND/OR OBSTRUCTIONS TO VISIBILITY

IDZ012-014-191500-
SOUTHWEST IDAHO


CITY           SKY/WX    TMP DP  RH WIND       PRES   REMARKS
BOISE          CLOUDY    43  33  68 NW7       29.93R
CALDWELL       CLOUDY    45  34  65 W14       29.95R
MOUNTAIN HOME  PTSUNNY   39  39 100 SW5       29.92R
$$

IDZ016-017-191500-
SOUTHCENTRAL IDAHO


CITY           SKY/WX    TMP DP  RH WIND       PRES   REMARKS
BURLEY         CLOUDY    41  24  51 E14G21    29.89R
JEROME         CLOUDY    45  20  36 NE18      29.89R
TWIN FALLS     CLOUDY    42  26  53 E8        29.89R
$$

IDZ019>023-191500-
SOUTHEAST IDAHO


CITY           SKY/WX    TMP DP  RH WIND       PRES   REMARKS
IDAHO FALLS    CLOUDY    38  28  67 N8        29.97S WCI  32
POCATELLO      CLOUDY    37  29  72 N3        29.94S
REXBURG        CLOUDY    38  26  62 E8        29.98R WCI  32
$$

IDZ006-010-011-018-031-032-191500-
CENTRAL IDAHO MOUNTAINS


CITY           SKY/WX    TMP DP  RH WIND       PRES   REMARKS
MCCALL         CLOUDY    32  24  72 CALM      29.98R
HAILEY         CLOUDY    43  19  39 NW12G20   29.95F
STANLEY          N/A     27  22  81 CALM      30.02R
SALMON         MOSUNNY   33  27  78 CALM      30.07R
CHALLIS        MOSUNNY   35  23  61 CALM      30.02
$$

IDZ002-004-006-007-026-191500-
NORTHERN IDAHO


CITY           SKY/WX    TMP DP  RH WIND       PRES   REMARKS
LEWISTON       SUNNY     42  35  76 CALM      30.11R
LOWELL           N/A     37  36  96 NW3       30.13R
COEUR D`ALENE  SUNNY     35  30  82 NE10      30.13R WCI  27
MULLAN PASS    SUNNY     32  18  56 VRB5      30.07R WCI  27
$$




USA.gov is the U.S. government's official web portal to all federal, state and local government web resources and services.